Regional Weather Roundup
Issued by NWS Sterling, VA

Home | Current Version | Previous Version | Graphics & Text | Print | Product List | Glossary Off
Versions: 1 2 3 4 5 6 7 8 9 10 11 12 13 14 15 16 17 18 19 20 21 22 23 24 25 26 27 28 29 30 31 32 33 34 35 36 37 38 39 40 41 42 43 44 45 46 47 48 49 50

000
ASUS41 KLWX 030810
RWRLWX

REGIONAL WEATHER ROUNDUP
NATIONAL WEATHER SERVICE BALTIMORE MD/WASHINGTON DC
400 AM EDT MON AUG 03 2015

Note: "FAIR" indicates few or no clouds below 12,000 feet
with no significant weather and/or obstructions to visibility.
 TC=TEMPERATURE CELSIUS

 * =Non NWS site. Station does not report precipitation (e.g. rain,
    snow, etc.), thunder, or fog.

DCZ001-MDZ009-015-VAZ040>042-051-053>054-030900-
WASHINGTON METRO

CITY           SKY/WX    TMP DP  RH WIND       PRES   REMARKS
WASHINGTON NAT PTCLDY    73  64  73 SW5       29.88F
DULLES         PTCLDY    67  62  84 S6        29.87F
ANDREWS AFB    PTCLDY    69  63  83 SW7       29.87F
COLLEGE PARK*  PTCLDY    66  66 100 CALM      29.87S
LEESBURG*      CLEAR     66  64  94 CALM      29.88F
MANASSAS*      PTCLDY    63  63 100 CALM      29.88F
GAITHERSBURG*  CLEAR     66  59  77 CALM      29.91F

$$

MDZ006>007-011-014-030900-
BALTIMORE METRO

CITY           SKY/WX    TMP DP  RH WIND       PRES   REMARKS
BWI AIRPORT    PTCLDY    68  63  84 CALM      29.86F
MD SCIENCE CTR   N/A     74  61  63 MISG      29.87F
MARTIN STATE   CLEAR     73  64  73 S5        29.88F
ANNAPOLIS      CLEAR     71  63  75 CALM      29.86F
FORT MEADE*    CLEAR     61  59  94 CALM      29.90S

$$

MDZ012-015-019>023-030900-
MARYLAND EASTERN SHORE

CITY           SKY/WX    TMP DP  RH WIND       PRES   REMARKS
OCEAN CITY     CLEAR     65  64  97 CALM      29.88S
SALISBURY      CLEAR     68  67  96 S5        29.88F
BAY BRIDGE AP*   N/A     75  63  64 SW7       29.87F
CAMBRIDGE*     CLEAR     64  61  88 CALM      29.87S
EASTON*        CLEAR     70  69  99 CALM      29.91S

$$

MDZ017>025-030900-
SOUTHERN MARYLAND

CITY           SKY/WX    TMP DP  RH WIND       PRES   REMARKS
PATUXENT RIVER PTCLDY    71  66  84 SW6       29.88S
ST INIGOES     CLEAR     68  65  90 CALM      29.87F
LEONARDTOWN*   CLEAR     68  63  83 CALM      29.90S

$$

MDZ003>005-030900-
NORTH CENTRAL MARYLAND

CITY           SKY/WX    TMP DP  RH WIND       PRES   REMARKS
FREDERICK*     CLEAR     64  63  94 CALM      29.90S
HAGERSTOWN APT CLEAR     69  59  70 S7        29.87S
WESTMINSTER*   CLEAR     70  61  73 S3        29.88F

$$

MDZ501>502-030900-
WESTERN MARYLAND

CITY           SKY/WX    TMP DP  RH WIND       PRES   REMARKS
OAKLAND*       CLEAR     61 N/A N/A SW9       29.96F
CUMBERLAND*    CLEAR     63  63 100 CALM      29.92S

$$

VAZ025>031-030900-
SHENANDOAH VALLEY

CITY           SKY/WX    TMP DP  RH WIND       PRES   REMARKS
WINCHESTER*    CLEAR     70  59  68 SW7       29.88S
FRONT ROYAL*   FAIR      64  59  82 S5        29.88S
LURAY*         FAIR      63  63 100 CALM      29.90F
NEW MARKET*    FAIR      60  58  93 CALM      29.89F
STAUNTON*      CLEAR     60  58  91 CALM      29.95F
WAYNESBORO*    FAIR      59  57  93 CALM      29.95S

$$

WVZ021-048>050-054>055-030900-
EASTERN WEST VIRGINIA PANHANDLE

CITY           SKY/WX    TMP DP  RH WIND       PRES   REMARKS
MARTINSBURG    CLEAR     64  58  80 S6        29.87F
PETERSBURG*    CLEAR    N/A N/A N/A CALM      29.91F

$$

VAZ036>039-050-030900-
CENTRAL FOOTHILLS

CITY           SKY/WX    TMP DP  RH WIND       PRES   REMARKS
CHARLOTTESVILL PTCLDY    66  61  84 CALM      29.90F
CULPEPER*      CLEAR     61  61  99 CALM      29.89F
ORANGE*        PTCLDY    63  63 100 CALM      29.91F
GORDONSVILLE*  FAIR      61  61 100 CALM      29.90S
WARRENTON*     FAIR      65  64  96 S3        29.88S

$$

VAZ055>057-030900-
NORTH AND CENTRAL PIEDMONT

CITY           SKY/WX    TMP DP  RH WIND       PRES   REMARKS
FREDERICKSBRG* PTCLDY    68  66  94 CALM      29.88S
STAFFORD*      PTCLDY    59  58  96 CALM      29.93S

$$

NCZ024-NYZ072-PAZ021-071-VAZ022-071-030900-
OTHER REGIONAL OBSERVATIONS

CITY           SKY/WX    TMP DP  RH WIND       PRES   REMARKS
NEW YORK CITY  CLEAR     77  58  51 VRB3      29.87S
PHILADELPHIA   CLEAR     73  64  73 S8        29.87S
PITTSBURGH     PTCLDY    70  59  68 SW6       29.84R
ROANOKE        CLEAR     62  58  86 N5        29.98F
RICHMOND       PTCLDY    70  64  81 S3        29.90S
RALEIGH        PTCLDY    70  66  87 CALM      29.91F

$$

ANZ530>537-030900-
MARINE OBSERVATIONS

STATION/POSITION TIME  TEMP    WIND        PRES
                       AIR SEA DIR/SP/G
                 (UTC) (F)     (DEG/KT/KT) (MB)
THOMAS PT LIGHT  NOT AVBL
BALT KEY BRIDGE  0700   75     230/ 11/ 13 1011.0F
COVE POINT       0700   75     250/  8/ 10 1012.4F
LEWISETTA        0700   74 83  240/  6/  8 1011.5F
SOLOMONS ISLAND  0700      83                N/A
PINEY POINT      0700          230/ 10/ 10   N/A

$$



USA.gov is the U.S. government's official web portal to all federal, state and local government web resources and services.